Wind_Speed
19 20 20 19 19 20 19 19 19 19 19 20 20 20 20 21 22 22 22 22 22 22 22 21 21 22 22 23 23 24 24 25 25 24 25 26 28 29 30 31 33 35 37
19 19 19 19 19 19 19 19 19 20 20 20 20 20 21 21 22 22 22 21 21 21 21 20 21 21 21 21 22 22 22 22 23 23 24 24 25 26 27 29 31 32 34
18 19 19 18 19 19 19 19 19 19 20 20 20 20 21 21 21 22 22 21 20 19 19 20 20 20 20 20 21 21 21 22 23 23 23 23 24 24 25 26 27 28 30
18 18 19 18 19 19 19 19 19 19 19 19 20 20 21 21 22 22 22 21 20 19 19 20 21 21 20 20 20 20 19 20 21 22 22 22 23 23 23 24 24 25 27
18 18 18 18 19 19 19 18 19 19 19 19 20 20 21 21 21 21 21 21 21 20 21 21 21 21 21 21 20 20 19 19 20 21 21 22 22 23 23 23 23 24 26
18 18 18 17 18 18 18 18 18 19 19 19 19 18 19 20 20 20 21 21 20 20 20 20 20 21 21 19 19 19 19 19 19 20 20 20 21 21 21 21 21 22 24
18 18 17 17 17 18 18 18 18 18 17 17 17 17 18 18 19 19 19 19 19 19 19 20 21 20 19 18 18 18 18 18 18 18 19 19 19 19 20 20 20 21 22
17 17 17 17 18 18 17 17 17 17 17 16 16 16 17 18 18 19 19 18 18 18 19 19 20 20 19 18 18 18 18 18 18 18 19 18 18 18 19 19 19 20 21
17 17 17 18 18 18 18 18 17 17 16 16 16 16 17 17 18 19 18 18 18 18 18 18 19 20 19 18 18 18 17 18 18 19 18 18 18 18 18 19 19 19 19
17 17 17 17 17 17 17 17 16 15 14 14 15 15 17 17 18 19 18 17 18 18 18 19 19 19 18 17 17 17 16 16 16 17 17 17 17 17 18 18 18 18 19
17 17 17 17 17 16 16 15 15 15 14 14 15 15 17 17 18 18 17 17 17 17 18 18 19 18 17 17 17 17 16 15 14 15 16 17 17 17 17 17 17 17 18
17 17 16 16 15 15 15 15 15 15 15 15 15 16 17 17 18 17 17 17 18 18 18 18 19 19 18 16 16 15 16 15 14 14 15 16 16 15 15 15 16 17 18
17 16 15 15 14 15 15 15 15 15 15 15 15 16 17 17 18 17 18 18 18 18 18 19 18 18 19 17 15 15 16 16 15 15 16 16 16 15 15 14 15 16 17
16 15 14 14 14 15 15 16 16 16 16 15 16 17 17 17 17 18 18 18 18 18 18 19 19 19 18 17 16 16 16 16 16 16 16 16 15 14 14 14 15 16 16
15 15 14 14 15 15 16 17 16 16 16 16 16 16 17 17 17 18 18 18 18 19 19 19 19 18 17 16 16 17 17 16 16 17 16 15 15 15 14 15 16 16 17
15 14 14 14 15 16 16 17 16 16 15 15 15 16 16 17 18 18 18 18 19 19 19 19 18 18 17 16 16 17 17 17 17 17 16 16 16 16 15 16 16 16 16
15 15 15 15 15 16 17 16 16 16 16 16 16 16 16 16 17 18 18 18 18 18 18 18 18 17 17 17 17 17 17 17 17 17 16 16 16 16 15 15 15 15 15
16 16 16 16 16 16 17 17 16 16 16 15 16 16 17 17 18 18 18 18 18 18 18 18 18 18 18 17 17 17 17 18 17 16 16 16 16 16 15 15 14 14 15
16 16 16 16 16 16 17 16 16 16 15 16 16 17 17 17 17 17 18 18 18 18 18 18 18 18 18 18 18 18 18 18 17 17 17 16 16 16 15 15 15 14 14
17 17 17 18 18 17 17 16 16 15 15 16 16 16 17 16 16 17 18 18 18 18 19 19 19 19 18 18 18 18 18 18 18 18 18 17 16 17 16 16 16 15 15
17 18 18 18 17 17 16 16 16 15 15 16 16 17 17 17 17 18 18 18 18 18 19 19 19 19 19 19 19 19 19 19 19 19 18 17 16 17 16 16 16 16 16
17 17 17 17 17 17 16 16 15 15 16 16 16 17 17 17 17 18 18 19 19 19 19 19 19 19 19 20 19 19 19 20 19 19 18 18 17 17 16 16 16 16 16
17 17 18 18 17 17 16 15 15 15 15 16 16 16 17 17 17 17 18 19 19 19 20 20 19 19 19 20 20 20 20 20 20 19 18 17 17 17 17 17 17 16 16
17 17 17 17 17 17 16 15 15 15 15 15 15 16 16 16 17 17 18 19 19 19 20 20 20 19 19 20 20 21 21 21 20 19 19 18 17 17 17 17 16 16 16
17 17 17 17 17 16 15 15 15 15 15 15 15 15 15 16 17 17 17 19 20 20 21 20 20 20 20 20 21 21 21 21 20 19 19 19 18 17 17 17 17 17 17
17 17 17 17 16 16 16 16 15 15 15 15 15 15 15 16 17 17 18 19 20 21 21 20 20 20 21 21 21 21 21 21 20 20 20 19 18 17 16 17 17 17 17
Wind_Direction
305 306 307 306 302 301 301 301 302 305 308 309 309 308 309 308 307 307 307 306 306 305 304 301 298 299 296 292 289 287 284 280 276 273 272 270 266 264 263 262 260 260 258
306 306 306 305 303 302 301 301 303 305 307 307 308 308 309 308 309 308 308 308 309 307 307 304 302 303 301 298 294 290 286 281 277 275 273 272 268 265 265 264 263 261 259
310 308 308 307 305 305 305 305 305 306 307 308 307 307 307 307 307 307 309 308 307 307 307 307 305 304 304 300 297 291 286 281 278 277 276 272 270 268 267 265 262 261 259
313 309 308 307 307 306 306 307 306 306 306 306 307 308 307 309 310 310 309 309 309 309 309 310 310 308 308 305 301 297 290 284 280 278 276 274 273 271 270 268 264 261 259
315 314 312 312 310 309 309 308 309 311 312 310 310 310 311 312 313 315 315 315 314 311 311 311 311 312 310 307 302 299 297 291 284 280 278 277 275 274 271 270 266 263 261
318 318 318 313 312 313 313 312 313 314 314 313 312 314 316 317 318 318 318 318 319 317 314 314 315 314 313 309 303 300 297 293 288 282 280 279 277 275 272 269 265 263 262
325 323 321 319 317 316 316 316 316 316 317 317 318 318 319 320 322 322 322 322 322 322 320 319 317 318 317 314 309 305 299 296 292 288 286 282 279 274 273 271 267 267 264
327 326 324 323 322 320 319 318 317 318 318 318 319 322 325 327 327 327 326 325 324 324 323 322 321 320 318 316 313 309 303 298 296 293 290 285 283 278 274 271 267 265 264
324 324 323 323 323 322 321 321 321 322 320 321 322 325 329 331 332 332 332 331 330 330 330 328 325 325 323 321 318 314 307 301 299 297 293 288 286 282 279 276 273 270 266
322 322 323 324 325 325 324 323 323 324 324 325 327 328 331 332 332 333 333 333 333 332 333 333 331 329 327 323 321 322 318 310 304 300 297 293 290 287 282 279 277 275 272
318 318 322 324 326 327 328 328 328 327 327 328 328 329 331 333 333 333 335 335 335 334 335 334 334 333 330 325 323 323 323 317 309 307 305 300 295 289 286 284 281 278 276
316 316 319 321 325 328 329 330 330 330 329 328 328 329 331 332 334 336 336 335 334 335 335 335 335 334 332 328 327 327 328 323 318 315 313 309 304 298 293 289 285 282 279
316 315 316 318 321 325 327 326 325 325 326 327 328 329 331 332 334 336 337 336 334 334 336 336 335 334 334 333 332 331 330 327 324 322 318 315 311 304 295 290 287 285 283
315 314 313 314 317 322 325 324 324 324 323 324 325 327 329 329 331 333 334 334 334 333 335 335 334 335 334 335 336 334 331 327 325 325 321 317 314 309 300 294 290 288 288
313 313 311 311 316 321 323 323 322 323 323 323 324 326 326 327 329 330 331 332 331 331 331 333 336 338 337 335 334 334 334 330 327 328 326 322 318 314 306 299 293 289 287
310 312 312 312 316 319 320 321 322 324 325 325 325 326 327 327 327 328 328 330 332 333 335 336 337 339 339 335 332 331 332 331 330 331 328 325 321 317 310 304 299 294 289
308 311 311 311 313 316 318 319 321 323 324 324 324 325 327 327 327 327 329 331 332 334 335 336 337 338 337 335 333 331 331 331 331 332 330 328 326 321 314 309 306 302 295
303 306 308 308 311 314 315 318 321 322 323 323 324 325 327 328 328 330 331 333 335 337 338 339 340 339 339 338 337 334 331 332 332 330 327 327 327 324 321 316 313 308 303
297 300 304 307 309 311 313 315 317 319 320 322 324 326 326 328 331 332 333 334 336 336 336 336 337 337 337 337 336 335 335 335 332 329 328 328 329 327 325 322 318 314 309
294 296 299 303 306 307 307 310 313 316 319 321 323 324 325 328 331 332 334 334 335 336 336 335 335 334 333 332 333 335 336 333 333 333 332 329 327 327 323 320 319 315 310
289 293 297 301 303 305 305 306 309 312 317 318 319 322 324 327 330 332 333 333 333 333 333 333 334 334 333 332 332 333 333 333 332 331 331 330 328 327 324 321 319 317 313
287 290 293 299 301 302 302 304 307 310 312 315 317 319 321 324 328 329 330 332 333 332 333 333 333 334 334 334 334 334 334 334 333 332 331 328 326 326 325 323 322 321 317
287 290 292 294 297 299 299 300 304 306 310 314 316 318 321 325 328 330 331 332 333 334 334 334 334 334 334 334 335 334 334 333 332 331 330 329 328 326 325 325 324 323 321
288 291 293 294 295 296 298 299 301 302 306 310 313 316 318 322 326 329 331 334 335 335 335 335 335 334 332 331 331 332 333 333 331 331 331 329 328 326 325 325 325 324 322
290 291 293 294 296 296 295 296 299 300 302 306 309 312 314 318 323 328 331 334 335 335 336 336 336 335 335 334 332 332 334 334 332 329 328 326 325 324 322 322 323 323 321
290 292 293 293 294 294 293 292 294 298 299 300 303 307 312 315 320 324 327 329 331 333 335 335 336 336 336 335 334 332 333 334 332 329 327 325 323 321 321 321 322 323 323
Height
5779 5776 5773 5770 5768 5765 5762 5760 5757 5755 5752 5750 5747 5744 5741 5738 5735 5732 5728 5724 5721 5718 5715 5713 5710 5707 5705 5702 5701 5699 5697 5696 5696 5695 5694 5693 5693 5693 5693 5694 5694 5694 5695
5775 5772 5769 5766 5763 5761 5758 5755 5753 5750 5747 5745 5742 5739 5736 5733 5730 5726 5723 5719 5716 5713 5710 5707 5704 5701 5699 5696 5694 5692 5690 5689 5688 5688 5687 5685 5685 5684 5684 5684 5684 5684 5684
5771 5768 5765 5762 5759 5756 5754 5751 5748 5745 5743 5740 5737 5734 5731 5728 5724 5721 5718 5715 5711 5708 5705 5702 5699 5696 5693 5691 5688 5686 5684 5683 5682 5681 5679 5678 5677 5677 5676 5676 5675 5675 5675
5767 5764 5761 5758 5755 5752 5749 5747 5744 5741 5738 5735 5732 5729 5726 5723 5719 5716 5712 5709 5706 5703 5700 5697 5693 5690 5687 5685 5682 5680 5678 5676 5675 5674 5673 5672 5671 5670 5669 5668 5668 5668 5668
5764 5760 5757 5754 5751 5748 5745 5742 5739 5736 5733 5730 5728 5725 5721 5718 5715 5711 5707 5704 5701 5698 5695 5691 5688 5685 5682 5679 5676 5674 5672 5670 5669 5668 5666 5665 5664 5663 5662 5661 5661 5660 5660
5760 5757 5753 5750 5747 5744 5741 5739 5736 5732 5729 5726 5723 5720 5717 5714 5710 5706 5703 5699 5696 5693 5690 5686 5683 5680 5676 5673 5671 5668 5667 5665 5663 5661 5660 5659 5658 5656 5655 5654 5653 5653 5654
5757 5753 5750 5747 5744 5741 5738 5735 5732 5729 5726 5722 5719 5716 5713 5710 5706 5702 5699 5695 5692 5689 5685 5682 5678 5675 5671 5668 5666 5663 5661 5659 5657 5656 5654 5652 5651 5650 5648 5647 5646 5646 5647
5754 5751 5747 5744 5741 5737 5734 5731 5728 5725 5722 5719 5716 5713 5709 5706 5702 5699 5695 5691 5688 5685 5681 5677 5674 5670 5667 5663 5661 5658 5656 5654 5652 5650 5648 5647 5645 5643 5641 5640 5640 5640 5640
5752 5748 5744 5741 5738 5734 5731 5728 5725 5722 5719 5716 5713 5709 5706 5703 5699 5695 5692 5688 5685 5681 5678 5674 5670 5666 5663 5659 5656 5653 5651 5649 5646 5644 5642 5641 5639 5637 5635 5634 5633 5633 5634
5748 5745 5741 5738 5734 5731 5728 5725 5722 5719 5716 5713 5710 5706 5703 5700 5696 5692 5689 5685 5682 5678 5674 5670 5666 5662 5659 5655 5652 5649 5646 5644 5641 5639 5637 5635 5633 5631 5629 5628 5627 5627 5627
5745 5741 5738 5735 5731 5728 5725 5722 5719 5716 5713 5710 5707 5704 5701 5697 5693 5690 5686 5682 5678 5674 5671 5667 5663 5659 5655 5651 5648 5645 5642 5639 5637 5634 5632 5629 5627 5625 5624 5622 5621 5621 5620
5741 5738 5734 5731 5728 5725 5722 5719 5716 5713 5710 5707 5704 5701 5698 5694 5691 5687 5683 5679 5675 5671 5668 5664 5660 5656 5652 5648 5644 5641 5638 5635 5632 5630 5627 5625 5622 5620 5619 5617 5616 5615 5614
5737 5734 5731 5728 5725 5722 5720 5717 5713 5711 5708 5705 5702 5698 5695 5692 5688 5684 5681 5677 5673 5669 5665 5660 5656 5652 5648 5644 5641 5638 5635 5632 5629 5626 5623 5621 5618 5616 5614 5612 5611 5610 5608
5733 5730 5727 5725 5722 5719 5717 5714 5711 5708 5705 5702 5699 5696 5692 5689 5685 5682 5678 5674 5670 5666 5661 5657 5653 5649 5645 5641 5638 5635 5632 5629 5625 5622 5619 5616 5614 5611 5609 5607 5606 5604 5603
5729 5726 5724 5721 5719 5717 5714 5711 5708 5705 5702 5699 5696 5693 5690 5686 5683 5679 5675 5671 5667 5663 5658 5654 5650 5646 5642 5639 5636 5632 5629 5625 5622 5619 5616 5613 5610 5607 5605 5602 5601 5599 5597
5725 5723 5721 5718 5716 5713 5711 5708 5705 5702 5699 5696 5693 5690 5687 5683 5680 5676 5672 5668 5664 5660 5655 5651 5647 5643 5640 5636 5633 5630 5626 5623 5619 5616 5613 5609 5606 5603 5601 5598 5596 5594 5592
5722 5720 5718 5715 5713 5710 5707 5704 5702 5699 5696 5693 5690 5687 5684 5681 5677 5674 5670 5665 5661 5657 5653 5649 5644 5641 5637 5634 5630 5627 5623 5620 5616 5613 5609 5606 5603 5600 5597 5594 5591 5589 5587
5718 5716 5714 5712 5709 5707 5704 5701 5698 5695 5692 5690 5687 5684 5681 5677 5674 5670 5666 5662 5658 5654 5650 5646 5642 5639 5635 5631 5627 5624 5620 5617 5613 5610 5606 5603 5599 5596 5593 5590 5587 5585 5582
5714 5712 5710 5708 5705 5703 5700 5697 5694 5691 5689 5686 5683 5680 5677 5674 5671 5667 5663 5659 5656 5652 5648 5644 5640 5636 5632 5628 5625 5621 5617 5613 5610 5606 5602 5599 5596 5592 5589 5586 5583 5580 5578
5710 5708 5706 5704 5701 5698 5696 5693 5691 5688 5685 5683 5680 5677 5674 5671 5668 5664 5660 5657 5653 5649 5646 5642 5638 5634 5630 5626 5622 5618 5614 5610 5606 5602 5599 5595 5592 5588 5585 5582 5579 5576 5573
5704 5702 5701 5699 5696 5694 5691 5689 5687 5684 5682 5680 5677 5674 5671 5668 5665 5661 5657 5654 5650 5647 5643 5639 5635 5631 5626 5622 5618 5614 5610 5606 5602 5598 5595 5591 5588 5584 5581 5578 5575 5572 5569
5698 5697 5695 5694 5692 5689 5687 5685 5683 5681 5678 5676 5674 5671 5668 5665 5662 5658 5654 5651 5647 5643 5639 5635 5631 5627 5623 5619 5615 5611 5607 5603 5599 5595 5591 5587 5584 5581 5577 5574 5571 5568 5564
5692 5691 5690 5688 5686 5684 5682 5681 5679 5677 5675 5673 5670 5667 5665 5662 5659 5655 5652 5648 5644 5640 5636 5632 5628 5624 5620 5616 5612 5608 5604 5599 5595 5591 5587 5584 5580 5577 5573 5570 5567 5564 5561
5686 5685 5684 5682 5681 5679 5677 5676 5674 5672 5671 5669 5667 5664 5661 5659 5656 5652 5649 5645 5641 5637 5633 5629 5624 5620 5616 5612 5608 5604 5600 5595 5591 5587 5584 5580 5576 5573 5570 5567 5563 5560 5557
5680 5679 5678 5677 5675 5673 5672 5671 5669 5668 5666 5665 5663 5660 5658 5655 5652 5649 5646 5642 5638 5634 5630 5626 5621 5617 5613 5609 5605 5600 5596 5592 5587 5583 5580 5576 5573 5569 5566 5563 5560 5557 5553
5675 5674 5672 5671 5670 5668 5667 5666 5664 5663 5662 5660 5658 5656 5654 5651 5648 5646 5643 5639 5635 5631 5627 5623 5619 5614 5610 5606 5601 5597 5593 5588 5584 5580 5576 5572 5569 5565 5562 5559 5556 5553 5550